Flag Weather past 2 weeks in Loures, Portugal

Now
50 °F

Passing clouds.


Feels Like: 49 °F
Forecast: 48 / 59 °F
Wind: 3 mph from North

Location: Lisbon Portela Airport

Current Time: Nov 27, 2014 at 3:11:08 AM

Latest Report: Nov 27, 2014 at 2:30 AM


Visibility: N/A

Pressure: 29.53 "Hg

Humidity: 100%

Dew point: 50 °F

Location of LouresLocation

Historic Weather in Loures — Graph

°F

Loures temperature yesterday

Maximum temperature yesterday: 57 °F (at 2:30 PM)
Minimum temperature yesterday: 48 °F (at 4:00 AM)
Average temperature yesterday: 52 °F

Past Weeks' High & Low Weather Summary

 TemperatureHumidityPressure
High70 °F (Nov 24, 1:30 PM)100% (Nov 12, 8:00 AM)30.15 "Hg (Nov 12, 8:00 AM)
Low48 °F (Nov 26, 4:00 AM)59% (Nov 25, 1:00 PM)29.53 "Hg (Nov 27, 2:00 AM)
Average58 °F88%29.87 "Hg
* Reported Nov 12 2:00 AM — Nov 27 2:00 AM, Loures, Weather by CustomWeather, © 2014

Note: Actual official high and low records may vary slightly from our data, if they occured in-between our weather recording intervals... More about our weather records

Advertising

Loures weather history for previous 24 hours

 ConditionsComfort  
Time TempWeatherWind HumidityBarometerVisibility
2:00 AM
Nov 27
50 °FPassing clouds.5 mph100%29.53 "HgN/A
1:30 AM52 °FPassing clouds.5 mph94%29.56 "HgN/A
1:00 AM50 °FPassing clouds.5 mph100%29.56 "HgN/A
12:30 AM50 °FPassing clouds.6 mph100%29.59 "HgN/A
12:00 AM52 °FPassing clouds.7 mph94%29.59 "HgN/A
11:30 PM
Nov 26
50 °FPassing clouds.6 mph100%29.59 "HgN/A
11:00 PM52 °FPassing clouds.5 mph100%29.59 "HgN/A
10:30 PM54 °FPassing clouds.6 mph94%29.62 "HgN/A
10:00 PM54 °FPassing clouds.8 mph100%29.62 "HgN/A
9:00 PM54 °FPassing clouds.8 mph100%29.62 "HgN/A
8:30 PM54 °FPassing clouds.7 mph94%29.62 "HgN/A
8:00 PM54 °FPassing clouds.7 mph100%29.62 "HgN/A
7:30 PM54 °FLight rain. Passing clouds.8 mph100%29.65 "HgN/A
7:00 PM54 °FLight rain. Passing clouds.8 mph100%29.65 "HgN/A
6:48 PM54 °FRain. Passing clouds.9 mph100%29.65 "Hg6 mi
6:30 PM54 °FLight rain. Passing clouds.7 mph100%29.65 "Hg6 mi
6:00 PM54 °FPassing clouds.2 mph94%29.65 "HgN/A
5:30 PM54 °FPassing clouds.3 mph94%29.65 "HgN/A
5:00 PM55 °FPartly sunny.7 mph88%29.65 "HgN/A
4:30 PM54 °FRain. Broken clouds.10 mph100%29.65 "Hg2 mi
4:00 PM54 °FThunderstorms. Scattered clouds.22 mph100%29.65 "Hg2 mi
3:46 PM54 °FStrong thunderstorms. Broken clouds.22 mph100%29.65 "Hg1 mi
3:30 PM55 °FLots of rain. Partly sunny.14 mph100%29.65 "Hg2 mi
3:00 PM57 °FThunderstorms. Broken clouds.12 mph88%29.65 "Hg3 mi
2:30 PM57 °FPartly sunny.10 mph88%29.68 "HgN/A
2:00 PM55 °FPartly sunny.10 mph94%29.71 "HgN/A
1:30 PM55 °FSprinkles. Partly sunny.10 mph94%29.71 "HgN/A
1:00 PM54 °FSprinkles. Partly sunny.10 mph94%29.74 "HgN/A
12:30 PM52 °FScattered clouds.10 mph100%29.77 "Hg6 mi
12:00 PM52 °FRain showers. Broken clouds.7 mph100%29.80 "Hg2 mi
11:48 AM52 °FRain showers. Partly sunny.9 mph100%29.80 "Hg2 mi
11:00 AM52 °FSprinkles. Scattered clouds.8 mph94%29.86 "Hg6 mi
10:30 AM52 °FPartly sunny.7 mph94%29.86 "HgN/A
10:00 AM52 °FLight rain. Scattered clouds.7 mph94%29.86 "Hg6 mi
9:00 AM52 °FBroken clouds.7 mph94%29.89 "HgN/A
8:30 AM52 °FBroken clouds.6 mph94%29.89 "HgN/A
8:00 AM52 °FLight rain. Broken clouds.7 mph94%29.89 "Hg4 mi
7:30 AM52 °FPartly sunny.2 mph94%29.92 "Hg6 mi
7:00 AM50 °FPassing clouds.3 mph94%29.89 "HgN/A
6:30 AM48 °FPassing clouds.2 mph100%29.92 "HgN/A
6:00 AM48 °FPassing clouds.2 mph94%29.92 "HgN/A
5:30 AM48 °FPassing clouds.No wind100%29.92 "HgN/A
5:00 AM48 °FPassing clouds.No wind94%29.95 "HgN/A
4:30 AM48 °FClear.No wind94%29.95 "Hg10 mi
4:00 AM48 °FClear.1 mph94%29.95 "Hg10 mi
3:30 AM50 °FPassing clouds.3 mph94%29.98 "HgN/A
3:00 AM50 °FPassing clouds.3 mph88%29.98 "HgN/A
Weather by CustomWeather, © 2014

See weather overviewHow to use our weather pages